TULLARI Weather Reports


time (UTC)temp
F
wind
direction
speed
knots
gust
knots
rain 1hr
in
rain 24hr
in
rain mn
in
humidity
%
barometer
mb
20260507104729 50 235 4.3 5.2 0.00 0.00 0.00 61 1016.4
20260507102730 48 184 2.6 3.5 0.00 0.00 0.00 58 1016.2
20260507100730 48 146 5.2 6.1 0.00 0.00 0.00 58 1016.1
20260507094730 49 138 5.2 7.0 0.00 0.00 0.00 58 1016.0
20260507092730 47 113 6.1 7.8 0.00 0.00 0.00 60 1016.0
20260507090731 46 116 6.1 7.8 0.00 0.00 0.00 59 1016.0
20260507084730 47 101 7.0 7.8 0.00 0.00 0.00 57 1016.0
20260507082730 48 98 6.1 7.8 0.00 0.00 0.00 57 1016.0
20260507080730 46 109 12.2 13.0 0.00 0.00 0.00 55 1016.0
20260507074730 46 111 13.0 13.9 0.00 0.00 0.00 52 1016.0
20260507072730 46 97 12.2 13.0 0.00 0.00 0.00 56 1015.9
20260507070729 46 85 12.2 13.0 0.00 0.00 0.00 51 1016.0
20260507064730 46 81 12.2 13.9 0.00 0.00 0.00 52 1015.9
20260507062729 45 81 13.0 15.6 0.00 0.00 0.00 47 1015.8
20260507060729 45 78 11.3 13.0 0.00 0.00 0.00 49 1015.7
20260507054730 44 69 11.3 13.0 0.00 0.00 0.00 43 1015.6
20260507052729 43 59 9.6 13.0 0.00 0.00 0.00 47 1015.5
20260507050728 42 53 8.7 11.3 0.00 0.00 0.00 52 1015.5
20260507044730 42 51 8.7 13.0 0.00 0.00 0.00 51 1015.4
20260507042728 42 56 10.4 13.0 0.00 0.00 0.00 47 1015.4
20260507040730 41 52 9.6 13.0 0.00 0.00 0.00 50 1015.4
20260507034729 41 54 9.6 13.0 0.00 0.00 0.00 49 1015.3
20260507032730 41 56 11.3 14.8 0.00 0.00 0.00 43 1015.1
20260507030730 41 61 12.2 14.8 0.00 0.00 0.00 47 1015.1
20260507024729 40 61 12.2 14.8 0.00 0.00 0.00 48 1015.1
20260507022730 40 64 12.2 13.9 0.00 0.00 0.00 49 1015.0
20260507020729 41 59 13.0 14.8 0.00 0.00 0.00 48 1014.9
20260507014729 40 58 12.2 13.9 0.00 0.00 0.00 48 1015.0
20260507012729 41 61 13.0 15.6 0.00 0.00 0.00 46 1014.8
20260507004729 41 48 9.6 10.4 0.00 0.00 0.00 50 1014.7
20260507002729 41 54 12.2 16.5 0.00 0.00 0.00 45 1014.5
20260507000729 41 54 11.3 15.6 0.00 0.00 0.00 47 1014.5
20260506234729 41 48 11.3 13.9 0.00 0.00 0.00 50 1014.4
20260506232728 42 43 10.4 12.2 0.00 0.00 0.00 52 1014.4
20260506230730 42 41 9.6 11.3 0.00 0.00 0.00 52 1014.5
20260506224728 42 32 10.4 13.0 0.00 0.00 0.00 54 1014.6
20260506222729 42 23 12.2 13.0 0.00 0.00 0.00 53 1014.6
20260506220729 42 15 10.4 12.2 0.00 0.00 0.00 54 1014.5
20260506214728 42 8 11.3 13.0 0.00 0.00 0.00 53 1014.5
20260506212728 42 2 11.3 13.9 0.00 0.00 0.00 52 1014.4
20260506210728 42 356 11.3 13.0 0.00 0.00 0.00 60 1014.4
20260506204728 43 353 10.4 13.0 0.00 0.00 0.00 68 1014.4
20260506202728 43 339 9.6 11.3 0.00 0.00 0.00 66 1014.5
20260506200728 43 332 7.8 8.7 0.00 0.00 0.00 69 1014.6
20260506194728 43 324 6.1 7.8 0.00 0.00 0.00 69 1014.6
20260506192727 43 321 7.0 7.8 0.00 0.00 0.00 68 1014.6
20260506190727 44 316 7.8 9.6 0.00 0.00 0.00 63 1014.6
20260506184727 44 315 8.7 10.4 0.00 0.00 0.00 55 1014.5
20260506182728 45 312 10.4 13.0 0.00 0.00 0.00 53 1014.3
20260506174728 46 297 8.7 12.2 0.00 0.00 0.00 57 1014.4
20260506172726 47 293 7.8 11.3 0.00 0.00 0.00 56 1014.5
20260506164726 47 291 7.8 13.0 0.00 0.00 0.00 56 1014.5
20260506162727 47 290 7.8 13.0 0.00 0.00 0.00 62 1014.4
20260506160727 47 288 8.7 11.3 0.00 0.00 0.00 65 1014.4
20260506154727 46 292 8.7 13.0 0.00 0.00 0.00 65 1014.4
20260506152727 46 280 9.6 13.0 0.00 0.00 0.00 68 1014.6
20260506150726 46 278 11.3 13.9 0.00 0.00 0.00 64 1014.6
20260506144726 45 273 13.9 14.8 0.00 0.00 0.00 63 1014.8
20260506142726 45 267 13.9 16.5 0.00 0.00 0.00 62 1014.9
20260506140726 45 252 13.0 15.6 0.00 0.00 0.00 62 1014.9
20260506134727 46 252 13.0 15.6 0.00 0.00 0.00 66 1014.9
20260506132726 46 248 13.0 14.8 0.00 0.00 0.00 71 1015.0
20260506130726 47 245 14.8 16.5 0.00 0.00 0.00 68 1014.9
20260506124726 47 241 13.0 14.8 0.00 0.00 0.00 66 1014.9
20260506122726 46 244 13.9 15.6 0.00 0.00 0.00 72 1014.9
20260506120726 46 244 13.9 14.8 0.00 0.00 0.00 74 1015.0
20260506114726 46 242 13.9 14.8 0.00 0.00 0.00 75 1015.0
20260506112727 46 233 13.9 15.6 0.00 0.00 0.00 74 1015.0
20260506110726 47 227 13.9 15.6 0.00 0.00 0.00 72 1015.0